GW1804 Weather Reports


time (UTC)temp
F
wind
direction
speed
knots
gust
knots
rain 1hr
in
rain 24hr
in
rain mn
in
humidity
%
barometer
mb
20260902235031 75 227 2.6 7.8 0.00 0.00 0.00 71 1014.5
20260902234551 75 288 2.6 7.8 0.00 0.00 0.00 70 1014.5
20260902234034 75 243 2.6 7.8 0.00 0.00 0.00 71 1014.5
20260902233531 75 238 2.6 9.6 0.00 0.00 0.00 70 1014.6
20260902233103 75 291 2.6 9.6 0.00 0.00 0.00 71 1014.7
20260902232532 75 273 3.5 8.7 0.00 0.00 0.00 71 1014.6
20260902232033 75 293 2.6 8.7 0.00 0.00 0.00 71 1014.6
20260902231558 75 272 4.3 8.7 0.00 0.00 0.00 71 1014.7
20260902231032 75 244 2.6 8.7 0.00 0.00 0.00 71 1014.6
20260902230535 76 215 3.5 8.7 0.00 0.00 0.00 71 1014.6
20260902230107 76 263 4.3 8.7 0.00 0.00 0.00 71 1014.8
20260902225531 76 259 2.6 7.8 0.00 0.00 0.00 70 1014.8
20260902225032 76 290 3.5 7.8 0.00 0.00 0.00 71 1014.9
20260902224603 76 277 4.3 7.8 0.00 0.00 0.00 70 1014.9
20260902224031 76 270 3.5 7.8 0.00 0.00 0.00 69 1015.0
20260902223531 76 221 3.5 7.0 0.00 0.00 0.00 70 1015.0
20260902223116 76 286 2.6 6.1 0.00 0.00 0.00 69 1015.0
20260902222530 76 283 3.5 8.7 0.00 0.00 0.00 70 1015.1
20260902222034 76 243 3.5 8.7 0.00 0.00 0.00 70 1015.1
20260902221555 76 304 2.6 10.4 0.00 0.00 0.00 70 1015.1
20260902221034 76 262 4.3 10.4 0.00 0.00 0.00 70 1015.2
20260902220532 76 279 3.5 8.7 0.00 0.00 0.00 69 1015.2
20260902220054 76 248 3.5 7.8 0.00 0.00 0.00 70 1015.2
20260902215534 76 287 3.5 7.8 0.00 0.00 0.00 68 1015.2
20260902215032 76 283 3.5 7.8 0.00 0.00 0.00 69 1015.2
20260902214555 76 268 3.5 7.8 0.00 0.00 0.00 69 1015.2
20260902214032 76 269 2.6 7.8 0.00 0.00 0.00 70 1015.2
20260902213532 76 290 2.6 8.7 0.00 0.00 0.00 70 1015.3
20260902213055 76 296 4.3 8.7 0.00 0.00 0.00 70 1015.3
20260902212533 76 306 4.3 7.8 0.00 0.00 0.00 70 1015.4
20260902212033 75 308 3.5 8.7 0.00 0.00 0.00 71 1015.5
20260902211556 75 207 4.3 8.7 0.00 0.00 0.00 72 1015.5
20260902211031 75 249 2.6 8.7 0.00 0.00 0.00 72 1015.5
20260902210532 75 259 4.3 8.7 0.00 0.00 0.00 71 1015.5
20260902210052 75 247 4.3 8.7 0.00 0.00 0.00 72 1015.5
20260902205531 75 299 4.3 10.4 0.00 0.00 0.00 72 1015.4
20260902205034 75 251 3.5 10.4 0.00 0.00 0.00 72 1015.5
20260902204630 75 283 3.5 7.8 0.00 0.00 0.00 73 1015.5
20260902204034 75 289 4.3 8.7 0.00 0.00 0.00 72 1015.5
20260902203534 75 296 3.5 8.7 0.00 0.00 0.00 73 1015.5
20260902203056 75 296 4.3 8.7 0.00 0.00 0.00 73 1015.5
20260902202533 75 303 3.5 7.8 0.00 0.00 0.00 73 1015.6
20260902202034 75 284 4.3 7.8 0.00 0.00 0.00 73 1015.6
20260902201558 75 273 4.3 7.8 0.00 0.00 0.00 74 1015.7
20260902201031 75 259 3.5 8.7 0.00 0.00 0.00 74 1015.7
20260902200532 75 285 3.5 8.7 0.00 0.00 0.00 74 1015.8
20260902200051 75 280 4.3 8.7 0.00 0.00 0.00 74 1015.9
20260902195532 75 306 3.5 8.7 0.00 0.00 0.00 74 1015.9
20260902195034 75 278 3.5 8.7 0.00 0.00 0.00 74 1015.8
20260902194602 75 283 4.3 8.7 0.00 0.00 0.00 74 1015.8
20260902194031 75 230 3.5 9.6 0.00 0.00 0.00 74 1015.8
20260902193532 75 267 4.3 9.6 0.00 0.00 0.00 74 1015.9
20260902193058 75 271 3.5 9.6 0.00 0.00 0.00 74 1016.0
20260902192531 75 263 3.5 7.0 0.00 0.00 0.00 75 1016.1
20260902192032 75 271 3.5 7.8 0.00 0.00 0.00 75 1016.1
20260902191555 75 231 3.5 7.8 0.00 0.00 0.00 75 1016.1
20260902191031 74 249 4.3 8.7 0.00 0.00 0.00 75 1016.1
20260902190535 74 266 3.5 8.7 0.00 0.00 0.00 75 1016.0
20260902185538 74 289 3.5 7.8 0.00 0.00 0.00 75 1016.0
20260902185036 74 294 2.6 7.0 0.00 0.00 0.00 76 1016.1
20260902184605 74 309 2.6 6.1 0.00 0.00 0.00 76 1016.1
20260902184034 74 227 2.6 8.7 0.00 0.00 0.00 76 1016.2
20260902183535 73 243 3.5 8.7 0.00 0.00 0.00 76 1016.3
20260902183112 73 225 2.6 9.6 0.00 0.00 0.00 76 1016.3
20260902182536 73 289 3.5 9.6 0.00 0.00 0.00 76 1016.4
20260902182035 73 251 2.6 7.0 0.00 0.00 0.00 77 1016.5
20260902181612 73 244 2.6 7.0 0.00 0.00 0.00 77 1016.5
20260902181032 73 261 3.5 7.0 0.00 0.00 0.00 77 1016.6
20260902180532 73 291 2.6 7.0 0.00 0.00 0.00 77 1016.5
20260902180057 73 229 2.6 6.1 0.00 0.00 0.00 78 1016.5
20260902175532 73 300 2.6 7.0 0.00 0.00 0.00 77 1016.5
20260902175036 73 284 2.6 7.0 0.00 0.00 0.00 78 1016.5
20260902174602 72 240 2.6 7.0 0.00 0.00 0.00 79 1016.5
20260902174035 72 306 2.6 7.0 0.00 0.00 0.00 79 1016.4
20260902173535 72 308 3.5 7.0 0.00 0.00 0.00 79 1016.4
20260902173114 72 265 2.6 7.0 0.00 0.00 0.00 79 1016.4
20260902172536 72 212 3.5 7.0 0.00 0.00 0.00 78 1016.4
20260902172035 72 252 2.6 7.0 0.00 0.00 0.00 79 1016.4
20260902171606 72 273 2.6 7.0 0.00 0.00 0.00 79 1016.4
20260902171036 71 234 2.6 5.2 0.00 0.00 0.00 78 1016.3
20260902170532 71 255 1.7 5.2 0.00 0.00 0.00 80 1016.2
20260902170057 70 192 0.0 4.3 0.00 0.00 0.00 81 1016.2
20260902165536 70 219 0.0 4.3 0.00 0.00 0.00 82 1016.1
20260902165036 69 204 0.9 3.5 0.00 0.00 0.00 83 1016.1
20260902164605 69 200 0.0 2.6 0.00 0.00 0.00 84 1016.2
20260902164036 69 0 0.0 2.6 0.00 0.00 0.00 85 1016.2
20260902163536 69 0 0.0 4.3 0.00 0.00 0.00 85 1016.2
20260902163106 68 0 0.9 4.3 0.00 0.00 0.00 86 1016.2
20260902162536 68 38 0.9 4.3 0.00 0.00 0.00 86 1016.2
20260902162036 68 0 0.9 4.3 0.00 0.00 0.00 87 1016.3
20260902161600 67 244 1.7 4.3 0.00 0.00 0.00 88 1016.3
20260902161035 67 272 1.7 4.3 0.00 0.00 0.00 89 1016.3
20260902160532 67 237 0.0 2.6 0.00 0.00 0.00 89 1016.2
20260902160054 66 0 0.9 3.5 0.00 0.00 0.00 90 1016.3
20260902155535 66 0 0.9 3.5 0.00 0.00 0.00 90 1016.3
20260902155035 66 233 0.9 1.7 0.00 0.00 0.00 90 1016.1
20260902154552 66 0 0.0 1.7 0.00 0.00 0.00 91 1016.1
20260902154031 66 0 0.0 1.7 0.00 0.00 0.00 90 1016.1
20260902153532 65 0 0.0 1.7 0.00 0.00 0.00 91 1016.1
20260902153059 65 0 0.0 0.9 0.00 0.00 0.00 91 1016.2
20260902152538 65 0 0.0 0.9 0.00 0.00 0.00 90 1016.1
20260902152035 65 0 0.0 0.9 0.00 0.00 0.00 91 1016.1
20260902151551 65 0 0.0 0.9 0.00 0.00 0.00 91 1016.1
20260902151036 65 0 0.0 0.9 0.00 0.00 0.00 91 1016.2
20260902150532 64 0 0.0 0.9 0.00 0.00 0.00 91 1016.1
20260902150055 64 0 0.0 0.9 0.00 0.00 0.00 91 1016.1
20260902145534 64 0 0.0 1.7 0.00 0.00 0.00 91 1016.2
20260902145036 64 0 0.0 1.7 0.00 0.00 0.00 91 1016.2
20260902144603 64 0 0.0 0.9 0.00 0.00 0.00 91 1016.3
20260902144032 64 0 0.0 0.9 0.00 0.00 0.00 91 1016.2
20260902143533 64 0 0.0 0.9 0.00 0.00 0.00 91 1016.1
20260902143103 64 0 0.0 0.9 0.00 0.00 0.00 91 1016.0
20260902142533 64 0 0.0 0.9 0.00 0.00 0.00 91 1016.1
20260902142035 64 0 0.0 0.0 0.00 0.00 0.00 91 1016.1
20260902141557 64 0 0.0 0.0 0.00 0.00 0.00 91 1016.1
20260902141033 64 0 0.0 0.0 0.00 0.00 0.00 91 1016.0
20260902140535 64 0 0.0 0.0 0.00 0.00 0.00 91 1015.9
20260902140056 64 0 0.0 0.0 0.00 0.00 0.00 91 1015.9
20260902135535 63 0 0.0 0.0 0.00 0.00 0.00 91 1015.8
20260902135032 63 0 0.0 0.0 0.00 0.00 0.00 91 1015.7
20260902134555 63 0 0.0 0.0 0.00 0.00 0.00 90 1015.6
20260902134032 63 0 0.0 0.0 0.00 0.00 0.00 90 1015.5
20260902133532 63 0 0.0 0.0 0.00 0.00 0.00 90 1015.5
20260902133055 63 0 0.0 0.0 0.00 0.00 0.00 90 1015.5
20260902132532 64 0 0.0 0.0 0.00 0.00 0.00 90 1015.5
20260902132035 64 0 0.0 0.0 0.00 0.00 0.00 90 1015.5
20260902131559 64 0 0.0 0.0 0.00 0.00 0.00 90 1015.5
20260902131033 64 0 0.0 0.0 0.00 0.00 0.00 90 1015.4
20260902130537 64 0 0.0 0.0 0.00 0.00 0.00 91 1015.4
20260902130100 64 0 0.0 0.0 0.00 0.00 0.00 91 1015.4
20260902125535 64 0 0.0 0.0 0.00 0.00 0.00 90 1015.4
20260902125032 64 0 0.0 0.0 0.00 0.00 0.00 90 1015.4
20260902124554 64 0 0.0 0.0 0.00 0.00 0.00 90 1015.3
20260902124035 64 0 0.0 0.0 0.00 0.00 0.00 90 1015.3
20260902123535 64 0 0.0 0.0 0.00 0.00 0.00 90 1015.4
20260902123101 64 0 0.0 0.0 0.00 0.00 0.00 90 1015.3
20260902122535 64 0 0.0 0.0 0.00 0.00 0.00 90 1015.3
20260902122033 64 0 0.0 0.0 0.00 0.00 0.00 90 1015.3
20260902121556 64 0 0.0 0.0 0.00 0.00 0.00 90 1015.3
20260902121034 64 0 0.0 0.0 0.00 0.00 0.00 90 1015.2
20260902120532 64 0 0.0 0.0 0.00 0.00 0.00 90 1015.2
20260902120105 64 0 0.0 0.0 0.00 0.00 0.00 90 1015.3
20260902115532 64 0 0.0 0.0 0.00 0.00 0.00 90 1015.3
20260902115032 64 0 0.0 0.0 0.00 0.00 0.00 90 1015.3
20260902114601 64 0 0.0 0.0 0.00 0.00 0.00 90 1015.3
20260902114032 64 0 0.0 0.0 0.00 0.00 0.00 90 1015.3
20260902113531 64 0 0.0 0.0 0.00 0.00 0.00 90 1015.4
20260902113101 64 0 0.0 0.0 0.00 0.00 0.00 90 1015.4
20260902112534 64 0 0.0 0.0 0.00 0.00 0.00 89 1015.4
20260902112035 64 0 0.0 0.0 0.00 0.00 0.00 89 1015.4
20260902111602 64 0 0.0 0.0 0.00 0.00 0.00 89 1015.4
20260902111035 64 0 0.0 0.0 0.00 0.00 0.00 89 1015.3
20260902110535 64 0 0.0 0.0 0.00 0.00 0.00 89 1015.4
20260902110103 64 0 0.0 0.0 0.00 0.00 0.00 89 1015.4
20260902105535 64 0 0.0 0.0 0.00 0.00 0.00 89 1015.4
20260902105035 64 0 0.0 0.0 0.00 0.00 0.00 89 1015.3
20260902104615 64 0 0.0 0.0 0.00 0.00 0.00 89 1015.4
20260902104036 64 0 0.0 0.0 0.00 0.00 0.00 89 1015.5
20260902103531 64 0 0.0 0.0 0.00 0.00 0.00 89 1015.5
20260902103117 65 0 0.0 0.0 0.00 0.00 0.00 89 1015.5
20260902102532 65 0 0.0 0.0 0.00 0.00 0.00 89 1015.6
20260902102031 65 0 0.0 0.0 0.00 0.00 0.00 88 1015.6
20260902101605 65 0 0.0 0.0 0.00 0.00 0.00 88 1015.6
20260902101032 65 0 0.0 0.0 0.00 0.00 0.00 88 1015.6
20260902100535 65 0 0.0 0.0 0.00 0.00 0.00 88 1015.6
20260902100057 65 0 0.0 0.0 0.00 0.00 0.00 88 1015.7
20260902095534 65 0 0.0 0.0 0.00 0.00 0.00 88 1015.8
20260902095037 65 0 0.0 0.0 0.00 0.00 0.00 88 1015.7
20260902094552 65 0 0.0 0.0 0.00 0.00 0.00 88 1015.8
20260902094035 65 0 0.0 0.0 0.00 0.00 0.00 88 1015.8
20260902093532 65 0 0.0 0.0 0.00 0.00 0.00 88 1015.8
20260902093051 65 0 0.0 0.0 0.00 0.00 0.00 88 1015.8
20260902092531 65 0 0.0 0.0 0.00 0.00 0.00 88 1015.8
20260902092035 65 0 0.0 0.0 0.00 0.00 0.00 88 1015.9
20260902091556 65 0 0.0 0.0 0.00 0.00 0.00 88 1016.0
20260902091035 65 0 0.0 0.0 0.00 0.00 0.00 87 1016.0
20260902090535 66 0 0.0 0.0 0.00 0.00 0.00 87 1016.0
20260902090057 66 0 0.0 0.0 0.00 0.00 0.00 87 1016.1
20260902085534 66 0 0.0 0.0 0.00 0.00 0.00 87 1016.1
20260902085034 66 0 0.0 0.0 0.00 0.00 0.00 87 1016.1
20260902084556 66 0 0.0 0.0 0.00 0.00 0.00 87 1016.1
20260902084035 66 0 0.0 0.0 0.00 0.00 0.00 87 1016.2
20260902083536 66 0 0.0 0.0 0.00 0.00 0.00 87 1016.2
20260902083055 66 0 0.0 0.0 0.00 0.00 0.00 87 1016.1
20260902082531 66 0 0.0 0.0 0.00 0.00 0.00 87 1016.0
20260902082035 66 0 0.0 0.0 0.00 0.00 0.00 86 1016.0
20260902081557 66 0 0.0 0.0 0.00 0.00 0.00 86 1016.1
20260902081031 66 0 0.0 0.9 0.00 0.00 0.00 86 1016.1
20260902080535 66 0 0.0 0.9 0.00 0.00 0.00 86 1016.0
20260902080054 66 0 0.0 0.9 0.00 0.00 0.00 86 1016.1
20260902075534 67 0 0.0 0.0 0.00 0.00 0.00 86 1016.1
20260902075035 67 0 0.0 0.0 0.00 0.00 0.00 86 1016.1
20260902074551 67 0 0.0 0.0 0.00 0.00 0.00 86 1016.1
20260902074034 67 0 0.0 0.0 0.00 0.00 0.00 86 1016.0
20260902073534 67 0 0.0 0.0 0.00 0.00 0.00 86 1015.9
20260902073051 67 0 0.0 0.0 0.00 0.00 0.00 86 1016.0
20260902072538 67 0 0.0 0.0 0.00 0.00 0.00 86 1015.9
20260902072036 67 0 0.0 0.0 0.00 0.00 0.00 86 1015.9
20260902071558 67 0 0.0 0.0 0.00 0.00 0.00 86 1015.9
20260902071031 67 0 0.0 0.0 0.00 0.00 0.00 86 1015.8
20260902070532 67 0 0.0 0.0 0.00 0.00 0.00 86 1015.9
20260902070100 68 0 0.0 0.0 0.00 0.00 0.00 86 1015.8
20260902065537 68 0 0.0 0.0 0.00 0.00 0.00 86 1015.8
20260902065035 68 0 0.0 0.9 0.00 0.00 0.00 86 1015.8
20260902064604 68 0 0.0 0.9 0.00 0.00 0.00 86 1015.7
20260902064037 68 0 0.0 0.9 0.00 0.00 0.00 86 1015.7
20260902063534 68 0 0.0 0.9 0.00 0.00 0.00 86 1015.7
20260902063104 68 0 0.0 0.9 0.00 0.00 0.00 86 1015.6
20260902062536 68 0 0.0 1.7 0.00 0.00 0.00 86 1015.7
20260902062032 68 5 0.0 1.7 0.00 0.00 0.00 86 1015.7
20260902061622 68 0 0.0 0.9 0.00 0.00 0.00 86 1015.6
20260902061036 68 350 0.0 0.9 0.00 0.00 0.00 86 1015.6
20260902060531 68 0 0.0 0.9 0.00 0.00 0.00 86 1015.6
20260902060058 68 0 0.0 0.9 0.00 0.00 0.00 86 1015.6
20260902055533 68 0 0.0 0.9 0.00 0.00 0.00 87 1015.6
20260902055035 68 0 0.0 0.9 0.00 0.00 0.00 87 1015.6
20260902054554 68 0 0.0 0.9 0.00 0.00 0.00 87 1015.5
20260902054031 68 0 0.0 0.9 0.00 0.00 0.00 86 1015.6
20260902053532 68 0 0.0 0.9 0.00 0.00 0.00 86 1015.6
20260902053052 68 0 0.0 0.9 0.00 0.00 0.00 86 1015.6
20260902052532 69 0 0.0 0.0 0.00 0.00 0.00 86 1015.6
20260902052032 69 0 0.0 0.0 0.00 0.00 0.00 86 1015.7
20260902051614 69 0 0.0 0.0 0.00 0.00 0.00 86 1015.7
20260902051031 69 0 0.0 0.0 0.00 0.00 0.00 86 1015.7
20260902050531 69 0 0.0 0.9 0.00 0.00 0.00 86 1015.6
20260902050057 69 0 0.0 0.9 0.00 0.00 0.00 86 1015.7
20260902045534 69 0 0.0 0.9 0.00 0.00 0.00 86 1015.7
20260902045035 69 0 0.0 0.9 0.00 0.00 0.00 86 1015.7
20260902044607 69 0 0.0 0.9 0.00 0.00 0.00 86 1015.6
20260902044032 69 0 0.0 0.9 0.00 0.00 0.00 86 1015.6
20260902043534 69 0 0.0 0.9 0.00 0.00 0.00 86 1015.5
20260902043051 69 0 0.0 0.9 0.00 0.00 0.00 86 1015.4
20260902042535 69 0 0.0 1.7 0.00 0.00 0.00 86 1015.4
20260902042034 69 0 0.0 1.7 0.00 0.00 0.00 86 1015.2
20260902041604 69 0 0.0 0.9 0.00 0.00 0.00 86 1015.1
20260902041034 69 0 0.0 0.9 0.00 0.00 0.00 86 1015.0
20260902040534 69 0 0.0 0.9 0.00 0.00 0.00 85 1015.0
20260902040058 69 0 0.0 0.9 0.00 0.00 0.00 85 1014.8
20260902035530 69 0 0.0 2.6 0.00 0.00 0.00 85 1014.6
20260902035034 69 0 0.0 2.6 0.00 0.00 0.00 85 1014.6
20260902034604 70 308 0.0 2.6 0.00 0.00 0.00 86 1014.5
20260902034032 70 308 0.0 2.6 0.00 0.00 0.00 85 1014.4
20260902033534 70 0 0.0 2.6 0.00 0.00 0.00 85 1014.3
20260902033051 70 0 0.0 3.5 0.00 0.00 0.00 85 1014.2
20260902032535 70 305 0.9 3.5 0.00 0.00 0.00 85 1014.1
20260902032033 70 305 0.9 2.6 0.00 0.00 0.00 85 1014.1
20260902031617 70 254 0.0 2.6 0.00 0.00 0.00 84 1014.1
20260902031031 70 0 0.0 2.6 0.00 0.00 0.00 84 1014.1
20260902030534 70 315 0.0 2.6 0.00 0.00 0.00 83 1014.1
20260902030057 70 0 0.0 2.6 0.00 0.00 0.00 83 1014.1
20260902025535 70 296 0.9 2.6 0.00 0.00 0.00 83 1014.0
20260902025034 70 294 0.0 2.6 0.00 0.00 0.00 82 1014.0
20260902024559 70 311 0.9 3.5 0.00 0.00 0.00 82 1014.0
20260902024031 70 308 0.9 3.5 0.00 0.00 0.00 81 1013.9
20260902023531 71 305 0.9 3.5 0.00 0.00 0.00 81 1013.9
20260902023104 71 287 0.9 3.5 0.00 0.00 0.00 81 1013.9
20260902022532 71 265 1.7 3.5 0.00 0.00 0.00 81 1013.9
20260902022031 71 298 1.7 2.6 0.00 0.00 0.00 81 1013.9
20260902021600 72 263 0.9 3.5 0.00 0.00 0.00 81 1014.0
20260902021034 72 284 0.9 3.5 0.00 0.00 0.00 81 1014.1
20260902020535 72 248 1.7 6.1 0.00 0.00 0.00 80 1014.1
20260902020053 73 306 1.7 6.1 0.00 0.00 0.00 80 1014.0
20260902015531 73 253 1.7 4.3 0.00 0.00 0.00 79 1014.1
20260902015031 73 278 1.7 4.3 0.00 0.00 0.00 79 1014.1
20260902014552 73 261 0.9 5.2 0.00 0.00 0.00 78 1014.1
20260902014037 73 265 2.6 5.2 0.00 0.00 0.00 77 1014.1
20260902013534 74 248 1.7 6.1 0.00 0.00 0.00 77 1014.0
20260902013105 74 287 1.7 7.0 0.00 0.00 0.00 76 1014.0
20260902012533 74 298 2.6 7.0 0.00 0.00 0.00 75 1014.0
20260902012032 74 318 2.6 7.0 0.00 0.00 0.00 75 1014.0
20260902011555 74 271 2.6 7.0 0.00 0.00 0.00 75 1014.0
20260902011034 74 288 1.7 6.1 0.00 0.00 0.00 75 1014.0
20260902010532 74 275 2.6 7.0 0.00 0.00 0.00 75 1014.0
20260902010059 75 308 1.7 7.0 0.00 0.00 0.00 75 1014.0
20260902005532 75 304 2.6 7.0 0.00 0.00 0.00 74 1014.0
20260902005032 75 274 2.6 7.0 0.00 0.00 0.00 74 1014.0
20260902004552 75 241 3.5 7.0 0.00 0.00 0.00 73 1014.1
20260902004032 75 300 1.7 7.0 0.00 0.00 0.00 73 1014.1
20260902003531 75 325 2.6 7.0 0.00 0.00 0.00 73 1014.1
20260902003102 75 302 2.6 7.0 0.00 0.00 0.00 73 1014.0
20260902002532 75 302 1.7 7.8 0.00 0.00 0.00 73 1014.0
20260902002031 75 307 2.6 7.8 0.00 0.00 0.00 74 1014.0
20260902001554 75 280 3.5 7.8 0.00 0.00 0.00 74 1014.0
20260902001032 75 316 2.6 7.8 0.00 0.00 0.00 75 1013.9
20260902000532 75 278 2.6 9.6 0.00 0.00 0.00 75 1014.0
20260902000055 75 300 4.3 9.6 0.00 0.00 0.00 74 1014.0
20260901235532 75 287 3.5 8.7 0.00 0.00 0.00 74 1014.0